Location: ????????
(55.0808°N, 38.5463°E)
Time: 02:32:14
(UTC+00:00)

Nimbus 3 Rocket - Pass Details

Date: 24 September 2024
Orbit: 1072 x 1131 km, 99.9° (Epoch: 03 October)

Event Time Altitude Azimuth Distance (km) Brightness Sun altitude
Rises 01:09:56 0° 22° (NNE) 3,921 8.9 -18.2°
Reaches altitude 10° 01:14:23 10° 354° (N) 2,948 7.8 -17.6°
Maximum altitude 01:16:42 12° 333° (NNW) 2,786 7.4 -17.3°
Drops below altitude 10° 01:19:01 10° 313° (NW) 2,933 7.3 -17.0°
Enters shadow 01:21:00 - 298° (WNW) 3,275 7.4 -16.7°
